TimePST,TemperatureF,Dew PointF,Humidity,Sea Level PressureIn,VisibilityMPH,Wind Direction,Wind SpeedMPH,Gust SpeedMPH,PrecipitationIn,Events,Conditions,WindDirDegrees,DateUTC
12:53 AM,51.1,39.9,66,30.08,10.0,Calm,Calm,-,N/A,,Clear,0,2013-01-09 08:53:00
1:53 AM,48.9,39.9,71,30.07,10.0,Calm,Calm,-,N/A,,Clear,0,2013-01-09 09:53:00
2:53 AM,50.0,39.0,66,30.09,10.0,Calm,Calm,-,N/A,,Clear,0,2013-01-09 10:53:00
3:53 AM,48.0,39.0,71,30.09,10.0,Calm,Calm,-,N/A,,Clear,0,2013-01-09 11:53:00
4:53 AM,46.0,39.0,76,30.08,10.0,East,3.5,-,N/A,,Clear,80,2013-01-09 12:53:00
5:53 AM,46.9,37.9,71,30.09,10.0,Calm,Calm,-,N/A,,Clear,0,2013-01-09 13:53:00
6:53 AM,48.9,37.0,64,30.10,10.0,Calm,Calm,-,N/A,,Clear,0,2013-01-09 14:53:00
7:53 AM,51.8,37.4,58,30.12,10.0,Calm,Calm,-,N/A,,Clear,0,2013-01-09 15:53:00
8:53 AM,59.0,39.9,49,30.12,10.0,Calm,Calm,-,N/A,,Clear,0,2013-01-09 16:53:00
9:53 AM,63.0,39.9,43,30.12,10.0,SSW,4.6,-,N/A,,Clear,210,2013-01-09 17:53:00
10:53 AM,63.0,41.0,45,30.11,10.0,WSW,6.9,-,N/A,,Clear,240,2013-01-09 18:53:00
11:53 AM,62.1,51.1,67,30.09,9.0,SSW,9.2,-,N/A,,Clear,210,2013-01-09 19:53:00
12:53 PM,61.0,46.9,60,30.07,10.0,SSW,8.1,-,N/A,,Clear,210,2013-01-09 20:53:00
1:53 PM,61.0,51.1,70,30.06,10.0,SW,5.8,-,N/A,,Clear,230,2013-01-09 21:53:00
2:53 PM,61.0,50.0,67,30.05,9.0,South,4.6,-,N/A,,Clear,190,2013-01-09 22:53:00
3:53 PM,61.0,52.0,72,30.05,7.0,SW,6.9,-,N/A,,Clear,220,2013-01-09 23:53:00
4:53 PM,54.0,51.1,90,30.05,3.0,South,5.8,-,N/A,,Partly Cloudy,190,2013-01-10 00:53:00
5:01 PM,53.6,51.8,94,30.04,2.0,South,4.6,-,N/A,,Mostly Cloudy,180,2013-01-10 01:01:00
5:18 PM,53.6,51.8,94,30.05,1.2,SW,4.6,-,N/A,,Overcast,220,2013-01-10 01:18:00
5:53 PM,54.0,51.1,90,30.05,2.5,South,4.6,-,N/A,,Overcast,190,2013-01-10 01:53:00
6:08 PM,53.6,51.8,94,30.05,1.2,SSW,3.5,-,N/A,,Overcast,210,2013-01-10 02:08:00
6:19 PM,53.6,51.8,94,30.05,2.5,SSW,3.5,-,N/A,,Overcast,210,2013-01-10 02:19:00
6:26 PM,53.6,51.8,94,30.05,3.0,South,4.6,-,N/A,,Overcast,180,2013-01-10 02:26:00
6:53 PM,55.0,52.0,89,30.04,7.0,SSE,4.6,-,N/A,,Overcast,160,2013-01-10 02:53:00
7:45 PM,55.4,51.8,88,30.06,9.0,West,3.5,-,N/A,,Overcast,270,2013-01-10 03:45:00
7:53 PM,55.9,51.1,84,30.06,9.0,Calm,Calm,-,N/A,,Overcast,0,2013-01-10 03:53:00
8:14 PM,55.4,51.8,88,30.05,10.0,Calm,Calm,-,N/A,,Overcast,0,2013-01-10 04:14:00
8:50 PM,55.4,51.8,88,30.05,8.0,Calm,Calm,-,N/A,,Scattered Clouds,0,2013-01-10 04:50:00
8:53 PM,55.0,51.1,86,30.04,8.0,Calm,Calm,-,N/A,,Scattered Clouds,0,2013-01-10 04:53:00
9:02 PM,55.4,51.8,88,30.04,7.0,Calm,Calm,-,N/A,,Mostly Cloudy,0,2013-01-10 05:02:00
9:53 PM,55.0,51.1,86,30.04,7.0,Calm,Calm,-,N/A,,Overcast,0,2013-01-10 05:53:00
10:53 PM,54.0,50.0,86,30.02,8.0,SE,4.6,-,N/A,,Overcast,140,2013-01-10 06:53:00
11:53 PM,54.0,48.9,83,30.01,8.0,South,3.5,-,N/A,,Overcast,170,2013-01-10 07:53:00